Weather History for Wahoo, NE

Change the Weather History Date:

Sunday, December 2, 2012

  Actual Average Record
Temperature  
Mean Temperature 46 °F -  
Max Temperature 63 °F 40 °F 66 °F (2013)
Min Temperature 28 °F 20 °F -2 °F (1985)
Degree Days  
Heating Degree Days 20    
Moisture  
Dew Point 37 °F    
Average Humidity 82    
Maximum Humidity 99    
Minimum Humidity 48    
Precipitation  
Precipitation 0.00 in - - ()
Sea Level Pressure  
Sea Level Pressure 29.90 in    
Wind  
Wind Speed 5 mph (SE)    
Max Wind Speed 14 mph    
Max Gust Speed 21 mph    
Visibility 7 miles    
Events Fog    
Averages and records for this station are not official NWS values.
T = Trace of Precipitation, MM = Missing Value Source: NWS Daily Summary

Daily Weather History Graph

Daily Weather History Graph

Search for Another Location

Airport:

Trip Planner

Search our weather history database for the weather conditions in past years. The results will help you decide how hot, cold, wet, or windy it might be!

Date:

Astronomy

Dec. 02, 2012 Rise Set
Actual Time 7:34 AM CST 4:57 PM CST
Civil Twilight 7:03 AM CST 5:28 PM CST
Nautical Twilight 6:29 AM CST 6:02 PM CST
Astronomical Twilight 5:55 AM CST 6:36 PM CST
Moon 8:47 PM CST (12/2) 10:23 AM CST (12/2)
Length of Visible Light 10h 25m
Length of Day
9h 23m
Waning Gibbous, 85% of the Moon is Illuminated
Dec 2
Waning Gibbous
Dec 6
Last Quarter
Dec 13
New
Dec 19
First Quarter
Dec 28
Full

Hourly Weather History & Observations

Time (CST) Temp. Windchill Dew Point Humidity Pressure Visibility Wind Dir Wind Speed Gust Speed Precip Events Conditions
12:15 AM 32.9 °F 28.5 °F 32.0 °F 96% 29.87 in 0.5 mi NNW 4.6 mph - N/A Fog Fog
12:35 AM 32.4 °F 27.9 °F 31.8 °F 98% 29.88 in 0.2 mi North 4.6 mph - N/A Fog Fog
12:55 AM 31.3 °F 26.6 °F 30.4 °F 96% 29.88 in 0.2 mi NW 4.6 mph - N/A Fog Light Freezing Fog
1:15 AM 32.2 °F - 31.8 °F 99% 29.88 in 0.2 mi Calm Calm - N/A Fog Fog
1:35 AM 32.2 °F 26.7 °F 31.6 °F 98% 29.88 in 0.2 mi North 5.8 mph - N/A Fog Fog
1:55 AM 31.3 °F - 30.4 °F 96% 29.89 in 0.2 mi Calm Calm - N/A Fog Light Freezing Fog
2:15 AM 31.1 °F 24.5 °F 30.6 °F 98% 29.89 in 0.5 mi North 6.9 mph - N/A Fog Light Freezing Fog
2:35 AM 29.1 °F 25.4 °F 28.4 °F 97% 29.90 in 1.0 mi North 3.5 mph - N/A   Mostly Cloudy
2:55 AM 29.8 °F - 28.9 °F 96% 29.92 in 3.0 mi Calm Calm - N/A   Scattered Clouds
3:15 AM 32.0 °F - 31.5 °F 98% 29.92 in 1.8 mi Calm Calm - N/A   Mist
3:35 AM 31.8 °F - 31.1 °F 97% 29.92 in 2.0 mi Calm Calm - N/A   Clear
3:55 AM 28.6 °F 22.4 °F 27.9 °F 97% 29.93 in 0.8 mi West 5.8 mph - N/A   Mist
4:15 AM 32.5 °F 28.1 °F 32.0 °F 98% 29.94 in 5.0 mi West 4.6 mph - N/A   Clear
4:35 AM 29.8 °F 26.3 °F 28.9 °F 96% 29.95 in 7.0 mi NW 3.5 mph - N/A   Clear
4:55 AM 30.0 °F 24.1 °F 29.1 °F 96% 29.94 in 7.0 mi NNW 5.8 mph - N/A   Clear
5:15 AM 29.7 °F 22.0 °F 28.8 °F 96% 29.95 in 7.0 mi North 8.1 mph - N/A   Clear
5:35 AM 31.1 °F 27.7 °F 30.0 °F 96% 29.96 in 7.0 mi North 3.5 mph - N/A   Clear
5:55 AM 29.3 °F - 27.9 °F 94% 29.97 in 7.0 mi Calm Calm - N/A   Clear
6:15 AM 30.6 °F 25.8 °F 29.1 °F 94% 29.97 in 7.0 mi North 4.6 mph - N/A   Clear
6:35 AM 29.1 °F 25.4 °F 27.5 °F 94% 29.98 in 7.0 mi NNW 3.5 mph - N/A   Clear
6:55 AM 30.7 °F - 29.5 °F 95% 29.98 in 5.0 mi Calm Calm - N/A   Clear
7:15 AM 30.6 °F 25.8 °F 29.3 °F 95% 29.98 in 5.0 mi North 4.6 mph - N/A   Clear
7:35 AM 30.4 °F 25.6 °F 29.1 °F 95% 29.99 in 5.0 mi North 4.6 mph - N/A   Clear
7:55 AM 29.1 °F 24.1 °F 27.7 °F 94% 30.00 in 4.0 mi WSW 4.6 mph - N/A   Clear
8:15 AM 32.0 °F 28.7 °F 31.1 °F 96% 30.02 in 3.0 mi South 3.5 mph - N/A   Clear
8:35 AM 31.6 °F - 30.4 °F 95% 30.02 in 3.0 mi Calm Calm - N/A   Clear
8:55 AM 33.6 °F - 32.4 °F 95% 30.02 in 3.0 mi Calm Calm - N/A   Clear
9:15 AM 37.8 °F - 36.5 °F 95% 30.01 in 5.0 mi Calm Calm - N/A   Clear
9:35 AM 40.1 °F - 37.4 °F 90% 30.01 in 7.0 mi Calm Calm - N/A   Clear
9:55 AM 41.7 °F - 37.9 °F 86% 30.00 in 10.0 mi Calm Calm - N/A   Clear
10:15 AM 44.2 °F 42.7 °F 39.4 °F 83% 30.00 in 10.0 mi South 3.5 mph - N/A   Clear
10:35 AM 46.8 °F - 39.9 °F 77% 30.00 in 10.0 mi SSE 8.1 mph - N/A   Clear
10:55 AM 48.4 °F - 40.6 °F 75% 29.99 in 10.0 mi South 5.8 mph - N/A   Clear
11:15 AM 51.3 °F - 42.1 °F 71% 29.98 in 10.0 mi South 4.6 mph - N/A   Clear
11:35 AM 53.4 °F - 42.8 °F 67% 29.97 in 10.0 mi SSE 5.8 mph - N/A   Clear
11:55 AM 55.4 °F - 43.5 °F 64% 29.96 in 10.0 mi SSE 10.4 mph - N/A   Clear
12:15 PM 56.5 °F - 43.2 °F 61% 29.95 in 10.0 mi South 10.4 mph - N/A   Clear
12:35 PM 57.6 °F - 42.1 °F 56% 29.94 in 10.0 mi SE 8.1 mph - N/A   Clear
12:55 PM 59.0 °F - 41.9 °F 53% 29.93 in 10.0 mi SE 8.1 mph - N/A   Clear
1:15 PM 59.9 °F - 41.5 °F 51% 29.92 in 10.0 mi SE 6.9 mph - N/A   Clear
1:35 PM 60.3 °F - 42.3 °F 51% 29.90 in 10.0 mi SE 8.1 mph - N/A   Clear
1:55 PM 62.4 °F - 43.3 °F 50% 29.88 in 10.0 mi SE 10.4 mph - N/A   Clear
2:15 PM 62.4 °F - 44.2 °F 51% 29.87 in 10.0 mi SE 10.4 mph - N/A   Clear
2:35 PM 63.0 °F - 44.6 °F 51% 29.85 in 10.0 mi ESE 11.5 mph - N/A   Clear
3:15 PM 63.5 °F - 43.3 °F 48% 29.84 in 10.0 mi SE 10.4 mph - N/A   Clear
3:35 PM 63.0 °F - 43.3 °F 49% 29.85 in 10.0 mi SE 11.5 mph - N/A   Clear
3:55 PM 62.4 °F - 43.3 °F 50% 29.85 in 10.0 mi SSE 12.7 mph - N/A   Clear
4:15 PM 61.7 °F - 41.5 °F 48% 29.85 in 10.0 mi SSE 13.8 mph 20.7 mph N/A   Clear
4:35 PM 58.6 °F - 41.9 °F 54% 29.85 in 10.0 mi SE 11.5 mph - N/A   Clear
4:55 PM 56.7 °F - 42.1 °F 58% 29.85 in 10.0 mi SE 10.4 mph - N/A   Clear
5:15 PM 52.5 °F - 41.4 °F 66% 29.85 in 10.0 mi SE 10.4 mph - N/A   Clear
5:35 PM 51.1 °F - 41.5 °F 70% 29.84 in 10.0 mi SSE 10.4 mph - N/A   Clear
5:55 PM 53.2 °F - 43.5 °F 70% 29.84 in 10.0 mi SSE 10.4 mph - N/A   Clear
6:15 PM 52.2 °F - 43.5 °F 72% 29.85 in 10.0 mi SSE 8.1 mph - N/A   Clear
6:35 PM 50.2 °F - 42.8 °F 76% 29.84 in 10.0 mi SSE 10.4 mph - N/A   Clear
6:55 PM 47.8 °F - 41.5 °F 79% 29.84 in 10.0 mi SE 6.9 mph - N/A   Clear
7:15 PM 45.5 °F 41.8 °F 40.5 °F 83% 29.83 in 10.0 mi SE 6.9 mph - N/A   Clear
7:35 PM 45.0 °F 40.6 °F 40.8 °F 85% 29.82 in 7.0 mi SSE 8.1 mph - N/A   Clear
7:55 PM 45.9 °F 41.7 °F 41.4 °F 84% 29.81 in 7.0 mi SSE 8.1 mph - N/A   Clear
8:15 PM 43.9 °F 39.9 °F 39.7 °F 85% 29.81 in 7.0 mi SE 6.9 mph - N/A   Clear
8:35 PM 42.1 °F 37.7 °F 38.5 °F 87% 29.81 in 7.0 mi SE 6.9 mph - N/A   Clear
8:55 PM 42.6 °F 37.2 °F 39.2 °F 88% 29.80 in 7.0 mi SE 9.2 mph - N/A   Clear
9:15 PM 42.4 °F 37.0 °F 38.5 °F 86% 29.80 in 7.0 mi SE 9.2 mph - N/A   Clear
9:35 PM 40.6 °F 35.4 °F 37.4 °F 88% 29.80 in 7.0 mi SE 8.1 mph - N/A   Clear
9:55 PM 39.2 °F 34.2 °F 36.5 °F 90% 29.78 in 7.0 mi SSE 6.9 mph - N/A   Clear
10:15 PM 38.8 °F 34.6 °F 36.0 °F 89% 29.78 in 7.0 mi ESE 5.8 mph - N/A   Clear
10:35 PM 40.5 °F 34.6 °F 37.8 °F 90% 29.77 in 7.0 mi SE 9.2 mph - N/A   Clear
10:55 PM 40.6 °F 34.3 °F 37.9 °F 90% 29.76 in 7.0 mi SE 10.4 mph - N/A   Clear
11:15 PM 40.5 °F 35.1 °F 38.1 °F 91% 29.76 in 7.0 mi SE 8.1 mph - N/A   Clear
11:35 PM 39.2 °F 33.6 °F 36.7 °F 91% 29.76 in 7.0 mi SE 8.1 mph - N/A   Clear
11:55 PM 38.7 °F 33.6 °F 36.7 °F 93% 29.74 in 7.0 mi SE 6.9 mph - N/A   Clear